This is the latest recevied weather packets stored in our database for station/object KD2VWU. If no packets are shown the sender has not sent any weather packets the latest 10 day(s).
| Time | Temp. | Humidity | Pressure | Rain* | Wind** | Luminosity | Snow |
|---|---|---|---|---|---|---|---|
| 1777464700 | 10.56° C | 78% | 1013.2 hPa | 0 mm | - | - | - |
| 1777464397 | 10° C | 79% | 1013.5 hPa | 0 mm | - | - | - |
| 1777464093 | 10° C | 80% | 1013.3 hPa | 0 mm | - | - | - |
| 1777462576 | 9.44° C | 86% | 1013.7 hPa | 0 mm | - | - | - |
| 1777461664 | 9.44° C | 88% | 1013.7 hPa | 0 mm | - | - | - |
| 1777461359 | 8.89° C | 88% | 1014 hPa | 0 mm | - | - | - |
| 1777461055 | 8.89° C | 88% | 1013.9 hPa | 0 mm | - | - | - |
| 1777460751 | 8.89° C | 88% | 1014.1 hPa | 0 mm | - | - | - |
| 1777460143 | 8.89° C | 87% | 1013.9 hPa | 0 mm | - | - | - |
| 1777459235 | 8.33° C | 89% | 1013.6 hPa | 0 mm | - | - | - |
| 1777458933 | 8.33° C | 90% | 1013.8 hPa | 0 mm | - | - | - |
| 1777458628 | 8.33° C | 90% | 1013.8 hPa | 0 mm | - | - | - |
| 1777458021 | 8.33° C | 89% | 1013.8 hPa | 0 mm | - | - | - |
| 1777457717 | 8.33° C | 89% | 1013.6 hPa | 0 mm | - | - | - |
| 1777457417 | 8.33° C | 89% | 1013.8 hPa | 0 mm | - | - | - |
| 1777455597 | 8.33° C | 88% | 1014 hPa | 0 mm | - | - | - |
| 1777455294 | 8.33° C | 88% | 1014 hPa | 0 mm | - | - | - |
| 1777454990 | 8.33° C | 87% | 1014.2 hPa | 0 mm | - | - | - |
| 1777454688 | 8.33° C | 87% | 1014.3 hPa | 0 mm | - | - | - |
| 1777454383 | 8.33° C | 85% | 1014.4 hPa | 0 mm | - | - | - |
| 1777454080 | 8.33° C | 84% | 1014.4 hPa | 0 mm | - | - | - |
| 1777453777 | 7.78° C | 86% | 1014 hPa | 0 mm | - | - | - |
| 1777453474 | 7.78° C | 88% | 1014 hPa | 0 mm | - | - | - |
| 1777453170 | 7.78° C | 88% | 1014.3 hPa | 0 mm | - | - | - |
| 1777452867 | 7.78° C | 88% | 1014.3 hPa | 0 mm | - | - | - |
* Rain latest hour (hover to see other rain measurements)
** Current wind speed in m/s (hover to see current wind gust speed)